This is the latest recevied weather packets stored in our database for station/object W9WRP. If no packets are shown the sender has not sent any weather packets the latest 10 day(s).
| Time | Temp. | Humidity | Pressure | Rain* | Wind** | Luminosity | Snow |
|---|---|---|---|---|---|---|---|
| 1788132167 | 38.89° C | 27% | 1011.5 hPa | 0 mm | - | 77 W/m² | - |
| 1788131863 | 38.89° C | 27% | 1011.5 hPa | 0 mm | - | 68 W/m² | - |
| 1788131562 | 39.44° C | 27% | 1011.5 hPa | 0 mm | - | 159 W/m² | - |
| 1788131258 | 40.56° C | 25% | 1011.5 hPa | 0 mm | - | 310 W/m² | - |
| 1788130953 | 40.56° C | 25% | 1011.6 hPa | 0 mm | - | 239 W/m² | - |
| 1788130652 | 40° C | 26% | 1011.9 hPa | 0 mm | - | 247 W/m² | - |
| 1788130348 | 40° C | 27% | 1011.9 hPa | 0 mm | - | 277 W/m² | - |
| 1788130046 | 40° C | 26% | 1012 hPa | 0 mm | - | 310 W/m² | - |
| 1788129742 | 40° C | 27% | 1012 hPa | 0 mm | - | 136 W/m² | - |
| 1788129438 | 40° C | 26% | 1012.3 hPa | 0 mm | - | 339 W/m² | - |
| 1788129134 | 40° C | 26% | 1012.2 hPa | 0 mm | - | 353 W/m² | - |
| 1788128828 | 40.56° C | 26% | 1012.4 hPa | 0 mm | - | 454 W/m² | - |
| 1788128523 | 40° C | 26% | 1012.5 hPa | 0 mm | - | 441 W/m² | - |
| 1788128219 | 40.56° C | 26% | 1012.5 hPa | 0 mm | - | 389 W/m² | - |
| 1788127915 | 41.11° C | 26% | 1012.4 hPa | 0 mm | - | 493 W/m² | - |
| 1788127611 | 41.11° C | 25% | 1012.7 hPa | 0 mm | - | 456 W/m² | - |
| 1788127309 | 41.11° C | 25% | 1012.7 hPa | 0 mm | - | 455 W/m² | - |
| 1788127009 | 40.56° C | 26% | 1012.7 hPa | 0 mm | - | 542 W/m² | - |
| 1788126703 | 40.56° C | 26% | 1012.9 hPa | 0 mm | - | 543 W/m² | - |
| 1788126398 | 40° C | 27% | 1013.1 hPa | 0 mm | - | 572 W/m² | - |
| 1788126093 | 40° C | 27% | 1013.1 hPa | 0 mm | - | 570 W/m² | - |
| 1788125792 | 40.56° C | 26% | 1013.2 hPa | 0 mm | - | 532 W/m² | - |
| 1788125488 | 40.56° C | 26% | 1013.4 hPa | 0 mm | - | 600 W/m² | - |
| 1788125184 | 40° C | 27% | 1013.3 hPa | 0 mm | - | 608 W/m² | - |
| 1788124879 | 39.44° C | 28% | 1013.5 hPa | 0 mm | - | 602 W/m² | - |
* Rain latest hour (hover to see other rain measurements)
** Current wind speed in m/s (hover to see current wind gust speed)